Location: Asheville, NC
(35.6000°N, 82.5500°W)
Time: 16:53:30
(UTC-05:00)

FO-29 - Visible Passes

Search period start: 23 January 2018 00:00
Search period end: 02 February 2018 00:00
Orbit: 799 x 1322 km, 98.5° (Epoch: 22 January)

Date Brightness Start Highest point End Pass type
(mag) Time Alt. Az. Time Alt. Az. Time Alt. Az.
24 Jan 11.9 06:41:04 10° ESE 06:45:55 22° ENE 06:50:24 10° NNE visible
26 Jan 11.9 06:36:30 10° ESE 06:40:58 20° ENE 06:45:07 10° NNE visible
28 Jan 11.9 06:31:57 10° ESE 06:36:00 18° ENE 06:39:47 10° NNE visible
30 Jan 11.9 06:27:27 10° ESE 06:31:01 16° ENE 06:34:25 10° NNE visible
01 Feb 12.0 06:22:59 10° E 06:26:04 14° ENE 06:28:59 10° NNE visible
